Overview Statistics Trail Chart Weather Telemetry Raw packets
 

This is the latest recevied weather packets stored in our database for station/object N5ATR. If no packets are shown the sender has not sent any weather packets the latest 10 day(s).

<< 8 9 10 11 12 13 14 >>
Time Temp. Humidity Pressure Rain* Wind** Luminosity Snow
1788632363 28.33° C 38% 1023.9 hPa 0 mm - 701 W/m² -
1788632058 27.22° C 37% 1023.8 hPa 0 mm - 695 W/m² -
1788631757 27.22° C 37% 1024 hPa 0 mm - 683 W/m² -
1788631453 26.67° C 39% 1023.8 hPa 0 mm - 682 W/m² -
1788631152 27.22° C 38% 1023.9 hPa 0 mm - 672 W/m² -
1788630852 27.78° C 37% 1023.8 hPa 0 mm - 669 W/m² -
1788630547 27.22° C 37% 1024 hPa 0 mm - 662 W/m² -
1788630243 26.67° C 38% 1024.4 hPa 0 mm - 657 W/m² -
1788629938 27.22° C 39% 1024.1 hPa 0 mm - 651 W/m² -
1788629635 27.78° C 38% 1023.9 hPa 0 mm - 644 W/m² -
1788629329 26.67° C 39% 1024 hPa 0 mm - 637 W/m² -
1788629027 26.67° C 37% 1024 hPa 0 mm - 631 W/m² -
1788628723 27.22° C 39% 1024.1 hPa 0 mm - 624 W/m² -
1788628420 26.67° C 39% 1023.8 hPa 0 mm - 624 W/m² -
1788628116 26.11° C 40% 1024.1 hPa 0 mm - 403 W/m² -
1788627812 25.56° C 41% 1023.9 hPa 0 mm - 380 W/m² -
1788627511 25.56° C 40% 1023.8 hPa 0 mm - 644 W/m² -
1788627207 26.11° C 41% 1023.8 hPa 0 mm - 624 W/m² -
1788626906 25.56° C 41% 1024 hPa 0 mm - 617 W/m² -
1788626601 25° C 43% 1023.9 hPa 0 mm - 380 W/m² -
1788626297 25.56° C 42% 1024 hPa 0 mm - 626 W/m² -
1788625993 25° C 43% 1023.6 hPa 0 mm - 582 W/m² -
1788625689 25° C 43% 1024 hPa 0 mm - 550 W/m² -
1788625389 25.56° C 43% 1024 hPa 0 mm - 522 W/m² -
1788625083 24.44° C 45% 1023.9 hPa 0 mm - 503 W/m² -

* Rain latest hour (hover to see other rain measurements)
** Current wind speed in m/s (hover to see current wind gust speed)